Year,Month,Day,Hour,Minute,Value (Times are PST for windgust in km/hr)
2006,01,31,00,00,9.60
2006,01,31,00,01,8.10
2006,01,31,00,02,11.30
2006,01,31,00,03,6.40
2006,01,31,00,04,9.60
2006,01,31,00,05,16.10
2006,01,31,00,06,8.10
2006,01,31,00,07,19.30
2006,01,31,00,08,11.30
2006,01,31,00,09,11.30
2006,01,31,00,10,14.50
2006,01,31,00,11,9.60
2006,01,31,00,12,8.10
2006,01,31,00,13,14.50
2006,01,31,00,14,16.10
2006,01,31,00,15,9.60
2006,01,31,00,16,16.10
2006,01,31,00,17,14.50
2006,01,31,00,18,16.10
2006,01,31,00,19,16.10
2006,01,31,00,20,16.10
2006,01,31,00,21,8.10
2006,01,31,00,22,19.30
2006,01,31,00,23,16.10
2006,01,31,00,24,8.10
2006,01,31,00,25,11.30
2006,01,31,00,26,12.90
2006,01,31,00,27,9.60
2006,01,31,00,28,9.60
2006,01,31,00,29,17.70
2006,01,31,00,30,16.10
2006,01,31,00,31,6.40
2006,01,31,00,32,12.90
2006,01,31,00,33,11.30
2006,01,31,00,34,16.10
2006,01,31,00,35,11.30
2006,01,31,00,36,8.10
2006,01,31,00,37,14.50
2006,01,31,00,38,9.60
2006,01,31,00,39,14.50
2006,01,31,00,40,19.30
2006,01,31,00,41,17.70
2006,01,31,00,42,16.10
2006,01,31,00,43,17.70
2006,01,31,00,44,17.70
2006,01,31,00,45,12.90
2006,01,31,00,46,11.30
2006,01,31,00,47,8.10
2006,01,31,00,48,6.40
2006,01,31,00,49,17.70
2006,01,31,00,50,17.70
2006,01,31,00,51,12.90
2006,01,31,00,52,8.10
2006,01,31,00,53,11.30
2006,01,31,00,54,17.70
2006,01,31,00,55,9.60
2006,01,31,00,56,6.40
2006,01,31,00,57,8.10
2006,01,31,00,58,8.10
2006,01,31,00,59,6.40
2006,01,31,01,00,6.40
2006,01,31,01,01,4.80
2006,01,31,01,02,3.20
2006,01,31,01,03,3.20
2006,01,31,01,04,3.20
2006,01,31,01,05,8.10
2006,01,31,01,06,14.50
2006,01,31,01,07,11.30
2006,01,31,01,08,11.30
2006,01,31,01,09,9.60
2006,01,31,01,10,14.50
2006,01,31,01,11,11.30
2006,01,31,01,12,16.10
2006,01,31,01,13,14.50
2006,01,31,01,14,9.60
2006,01,31,01,15,11.30
2006,01,31,01,16,8.10
2006,01,31,01,17,9.60
2006,01,31,01,18,9.60
2006,01,31,01,19,9.60
2006,01,31,01,20,8.10
2006,01,31,01,21,14.50
2006,01,31,01,22,8.10
2006,01,31,01,23,6.40
2006,01,31,01,24,8.10
2006,01,31,01,25,8.10
2006,01,31,01,26,9.60
2006,01,31,01,27,6.40
2006,01,31,01,28,8.10
2006,01,31,01,29,6.40
2006,01,31,01,30,4.80
2006,01,31,01,31,8.10
2006,01,31,01,32,6.40
2006,01,31,01,33,1.60
2006,01,31,01,34,6.40
2006,01,31,01,35,6.40
2006,01,31,01,36,4.80
2006,01,31,01,37,6.40
2006,01,31,01,38,4.80
2006,01,31,01,39,6.40
2006,01,31,01,40,6.40
2006,01,31,01,41,6.40
2006,01,31,01,42,6.40
2006,01,31,01,43,4.80
2006,01,31,01,44,4.80
2006,01,31,01,45,6.40
2006,01,31,01,46,6.40
2006,01,31,01,47,3.20
2006,01,31,01,48,1.60
2006,01,31,01,49,0.00
2006,01,31,01,50,0.00
2006,01,31,01,51,0.00
2006,01,31,01,52,1.60
2006,01,31,01,53,4.80
2006,01,31,01,54,4.80
2006,01,31,01,55,0.00
2006,01,31,01,56,1.60
2006,01,31,01,57,1.60
2006,01,31,01,58,0.00
2006,01,31,01,59,4.80
2006,01,31,02,00,4.80
2006,01,31,02,01,4.80
2006,01,31,02,02,3.20
2006,01,31,02,03,1.60
2006,01,31,02,04,0.00
2006,01,31,02,05,3.20
2006,01,31,02,06,0.00
2006,01,31,02,07,1.60
2006,01,31,02,08,3.20
2006,01,31,02,09,3.20
2006,01,31,02,10,3.20
2006,01,31,02,11,4.80
2006,01,31,02,12,4.80
2006,01,31,02,13,4.80
2006,01,31,02,14,3.20
2006,01,31,02,15,3.20
2006,01,31,02,16,3.20
2006,01,31,02,17,9.60
2006,01,31,02,18,6.40
2006,01,31,02,19,4.80
2006,01,31,02,20,3.20
2006,01,31,02,21,3.20
2006,01,31,02,22,1.60
2006,01,31,02,23,4.80
2006,01,31,02,24,4.80
2006,01,31,02,25,3.20
2006,01,31,02,26,4.80
2006,01,31,02,27,6.40
2006,01,31,02,28,6.40
2006,01,31,02,29,4.80
2006,01,31,02,30,0.00
2006,01,31,02,31,0.00
2006,01,31,02,32,4.80
2006,01,31,02,33,4.80
2006,01,31,02,34,3.20
2006,01,31,02,35,4.80
2006,01,31,02,36,4.80
2006,01,31,02,37,4.80
2006,01,31,02,38,6.40
2006,01,31,02,39,3.20
2006,01,31,02,40,4.80
2006,01,31,02,41,3.20
2006,01,31,02,42,6.40
2006,01,31,02,43,6.40
2006,01,31,02,44,8.10
2006,01,31,02,45,4.80
2006,01,31,02,46,3.20
2006,01,31,02,47,8.10
2006,01,31,02,48,4.80
2006,01,31,02,49,3.20
2006,01,31,02,50,4.80
2006,01,31,02,51,6.40
2006,01,31,02,52,1.60
2006,01,31,02,53,4.80
2006,01,31,02,54,3.20
2006,01,31,02,55,8.10
2006,01,31,02,56,11.30
2006,01,31,02,57,3.20
2006,01,31,02,58,1.60
2006,01,31,02,59,0.00
2006,01,31,03,00,3.20
2006,01,31,03,01,4.80
2006,01,31,03,02,6.40
2006,01,31,03,03,4.80
2006,01,31,03,04,4.80
2006,01,31,03,05,4.80
2006,01,31,03,06,6.40
2006,01,31,03,07,6.40
2006,01,31,03,08,6.40
2006,01,31,03,09,8.10
2006,01,31,03,10,3.20
2006,01,31,03,11,3.20
2006,01,31,03,12,3.20
2006,01,31,03,13,3.20
2006,01,31,03,14,6.40
2006,01,31,03,15,4.80
2006,01,31,03,16,6.40
2006,01,31,03,17,6.40
2006,01,31,03,18,8.10
2006,01,31,03,19,8.10
2006,01,31,03,20,6.40
2006,01,31,03,21,9.60
2006,01,31,03,22,8.10
2006,01,31,03,23,8.10
2006,01,31,03,24,6.40
2006,01,31,03,25,9.60
2006,01,31,03,26,9.60
2006,01,31,03,27,11.30
2006,01,31,03,28,11.30
2006,01,31,03,29,11.30
2006,01,31,03,30,11.30
2006,01,31,03,31,8.10
2006,01,31,03,32,8.10
2006,01,31,03,33,8.10
2006,01,31,03,34,6.40
2006,01,31,03,35,6.40
2006,01,31,03,36,6.40
2006,01,31,03,37,11.30
2006,01,31,03,38,4.80
2006,01,31,03,39,3.20
2006,01,31,03,40,4.80
2006,01,31,03,41,6.40
2006,01,31,03,42,3.20
2006,01,31,03,43,3.20
2006,01,31,03,44,4.80
2006,01,31,03,45,6.40
2006,01,31,03,46,0.00
2006,01,31,03,47,0.00
2006,01,31,03,48,4.80
2006,01,31,03,49,0.00
2006,01,31,03,50,3.20
2006,01,31,03,51,0.00
2006,01,31,03,52,3.20
2006,01,31,03,53,3.20
2006,01,31,03,54,4.80
2006,01,31,03,55,4.80
2006,01,31,03,56,6.40
2006,01,31,03,57,4.80
2006,01,31,03,58,1.60
2006,01,31,03,59,0.00
2006,01,31,04,00,1.60
2006,01,31,04,01,3.20
2006,01,31,04,02,1.60
2006,01,31,04,03,0.00
2006,01,31,04,04,1.60
2006,01,31,04,05,0.00
2006,01,31,04,06,4.80
2006,01,31,04,07,3.20
2006,01,31,04,08,1.60
2006,01,31,04,09,0.00
2006,01,31,04,10,0.00
2006,01,31,04,11,1.60
2006,01,31,04,12,3.20
2006,01,31,04,13,3.20
2006,01,31,04,14,1.60
2006,01,31,04,15,1.60
2006,01,31,04,16,0.00
2006,01,31,04,17,0.00
2006,01,31,04,18,1.60
2006,01,31,04,19,3.20
2006,01,31,04,20,3.20
2006,01,31,04,21,3.20
2006,01,31,04,22,4.80
2006,01,31,04,23,4.80
2006,01,31,04,24,6.40
2006,01,31,04,25,4.80
2006,01,31,04,26,3.20
2006,01,31,04,27,1.60
2006,01,31,04,28,3.20
2006,01,31,04,29,4.80
2006,01,31,04,30,1.60
2006,01,31,04,31,0.00
2006,01,31,04,32,1.60
2006,01,31,04,33,0.00
2006,01,31,04,34,0.00
2006,01,31,04,35,0.00
2006,01,31,04,36,0.00
2006,01,31,04,37,0.00
2006,01,31,04,38,0.00
2006,01,31,04,39,0.00
2006,01,31,04,40,0.00
2006,01,31,04,41,0.00
2006,01,31,04,42,0.00
2006,01,31,04,43,0.00
2006,01,31,04,44,0.00
2006,01,31,04,45,0.00
2006,01,31,04,46,0.00
2006,01,31,04,47,0.00
2006,01,31,04,48,1.60
2006,01,31,04,49,3.20
2006,01,31,04,50,3.20
2006,01,31,04,51,1.60
2006,01,31,04,52,6.40
2006,01,31,04,53,6.40
2006,01,31,04,54,8.10
2006,01,31,04,55,9.60
2006,01,31,04,56,8.10
2006,01,31,04,57,8.10
2006,01,31,04,58,6.40
2006,01,31,04,59,9.60
2006,01,31,05,00,8.10
2006,01,31,05,01,8.10
2006,01,31,05,02,8.10
2006,01,31,05,03,6.40
2006,01,31,05,04,8.10
2006,01,31,05,05,8.10
2006,01,31,05,06,6.40
2006,01,31,05,07,4.80
2006,01,31,05,08,4.80
2006,01,31,05,09,3.20
2006,01,31,05,10,9.60
2006,01,31,05,11,6.40
2006,01,31,05,12,6.40
2006,01,31,05,13,4.80
2006,01,31,05,14,6.40
2006,01,31,05,15,9.60
2006,01,31,05,16,9.60
2006,01,31,05,17,6.40
2006,01,31,05,18,6.40
2006,01,31,05,19,6.40
2006,01,31,05,20,9.60
2006,01,31,05,21,9.60
2006,01,31,05,22,6.40
2006,01,31,05,23,9.60
2006,01,31,05,24,9.60
2006,01,31,05,25,16.10
2006,01,31,05,26,16.10
2006,01,31,05,27,14.50
2006,01,31,05,28,9.60
2006,01,31,05,29,6.40
2006,01,31,05,30,8.10
2006,01,31,05,31,16.10
2006,01,31,05,32,8.10
2006,01,31,05,33,8.10
2006,01,31,05,34,6.40
2006,01,31,05,35,6.40
2006,01,31,05,36,9.60
2006,01,31,05,37,9.60
2006,01,31,05,38,9.60
2006,01,31,05,39,8.10
2006,01,31,05,40,8.10
2006,01,31,05,41,9.60
2006,01,31,05,42,9.60
2006,01,31,05,43,11.30
2006,01,31,05,44,9.60
2006,01,31,05,45,9.60
2006,01,31,05,46,8.10
2006,01,31,05,47,9.60
2006,01,31,05,48,8.10
2006,01,31,05,49,8.10
2006,01,31,05,50,9.60
2006,01,31,05,51,8.10
2006,01,31,05,52,9.60
2006,01,31,05,53,4.80
2006,01,31,05,54,6.40
2006,01,31,05,55,4.80
2006,01,31,05,56,6.40
2006,01,31,05,57,9.60
2006,01,31,05,58,8.10
2006,01,31,05,59,8.10
2006,01,31,06,00,6.40
2006,01,31,06,01,4.80
2006,01,31,06,02,3.20
2006,01,31,06,03,4.80
2006,01,31,06,04,4.80
2006,01,31,06,05,4.80
2006,01,31,06,06,3.20
2006,01,31,06,07,3.20
2006,01,31,06,08,6.40
2006,01,31,06,09,6.40
2006,01,31,06,10,3.20
2006,01,31,06,11,4.80
2006,01,31,06,12,4.80
2006,01,31,06,13,4.80
2006,01,31,06,14,4.80
2006,01,31,06,15,4.80
2006,01,31,06,16,4.80
2006,01,31,06,17,4.80
2006,01,31,06,18,3.20
2006,01,31,06,19,4.80
2006,01,31,06,20,4.80
2006,01,31,06,21,4.80
2006,01,31,06,22,3.20
2006,01,31,06,23,6.40
2006,01,31,06,24,4.80
2006,01,31,06,25,1.60
2006,01,31,06,26,0.00
2006,01,31,06,27,0.00
2006,01,31,06,28,1.60
2006,01,31,06,29,1.60
2006,01,31,06,30,1.60
2006,01,31,06,31,1.60
2006,01,31,06,32,3.20
2006,01,31,06,33,4.80
2006,01,31,06,34,4.80
2006,01,31,06,35,8.10
2006,01,31,06,36,8.10
2006,01,31,06,37,6.40
2006,01,31,06,38,9.60
2006,01,31,06,39,8.10
2006,01,31,06,40,9.60
2006,01,31,06,41,8.10
2006,01,31,06,42,9.60
2006,01,31,06,43,8.10
2006,01,31,06,44,6.40
2006,01,31,06,45,9.60
2006,01,31,06,46,6.40
2006,01,31,06,47,9.60
2006,01,31,06,48,8.10
2006,01,31,06,49,9.60
2006,01,31,06,50,8.10
2006,01,31,06,51,12.90
2006,01,31,06,52,6.40
2006,01,31,06,53,6.40
2006,01,31,06,54,6.40
2006,01,31,06,55,6.40
2006,01,31,06,56,6.40
2006,01,31,06,57,8.10
2006,01,31,06,58,8.10
2006,01,31,06,59,6.40
2006,01,31,07,00,3.20
2006,01,31,07,01,4.80
2006,01,31,07,02,6.40
2006,01,31,07,03,4.80
2006,01,31,07,04,3.20
2006,01,31,07,05,6.40
2006,01,31,07,06,9.60
2006,01,31,07,07,11.30
2006,01,31,07,08,9.60
2006,01,31,07,09,8.10
2006,01,31,07,10,9.60
2006,01,31,07,11,8.10
2006,01,31,07,12,11.30
2006,01,31,07,13,9.60
2006,01,31,07,14,11.30
2006,01,31,07,15,9.60
2006,01,31,07,16,8.10
2006,01,31,07,17,8.10
2006,01,31,07,18,9.60
2006,01,31,07,19,6.40
2006,01,31,07,20,6.40
2006,01,31,07,21,4.80
2006,01,31,07,22,3.20
2006,01,31,07,23,4.80
2006,01,31,07,24,9.60
2006,01,31,07,25,9.60
2006,01,31,07,26,8.10
2006,01,31,07,27,6.40
2006,01,31,07,28,6.40
2006,01,31,07,29,8.10
2006,01,31,07,30,6.40
2006,01,31,07,31,4.80
2006,01,31,07,32,6.40
2006,01,31,07,33,9.60
2006,01,31,07,34,9.60
2006,01,31,07,35,4.80
2006,01,31,07,36,6.40
2006,01,31,07,37,6.40
2006,01,31,07,38,8.10
2006,01,31,07,39,4.80
2006,01,31,07,40,8.10
2006,01,31,07,41,8.10
2006,01,31,07,42,8.10
2006,01,31,07,43,8.10
2006,01,31,07,44,8.10
2006,01,31,07,45,8.10
2006,01,31,07,46,6.40
2006,01,31,07,47,8.10
2006,01,31,07,48,8.10
2006,01,31,07,49,4.80
2006,01,31,07,50,3.20
2006,01,31,07,51,1.60
2006,01,31,07,52,3.20
2006,01,31,07,53,4.80
2006,01,31,07,54,4.80
2006,01,31,07,55,4.80
2006,01,31,07,56,6.40
2006,01,31,07,57,8.10
2006,01,31,07,58,6.40
2006,01,31,07,59,6.40
2006,01,31,08,00,4.80
2006,01,31,08,01,4.80
2006,01,31,08,02,6.40
2006,01,31,08,03,3.20
2006,01,31,08,04,3.20
2006,01,31,08,05,0.00
2006,01,31,08,06,4.80
2006,01,31,08,07,3.20
2006,01,31,08,08,1.60
2006,01,31,08,09,3.20
2006,01,31,08,10,1.60
2006,01,31,08,11,1.60
2006,01,31,08,12,1.60
2006,01,31,08,13,0.00
2006,01,31,08,14,0.00
2006,01,31,08,15,0.00
2006,01,31,08,16,0.00
2006,01,31,08,17,0.00
2006,01,31,08,18,0.00
2006,01,31,08,19,0.00
2006,01,31,08,20,4.80
2006,01,31,08,21,3.20
2006,01,31,08,22,3.20
2006,01,31,08,23,3.20
2006,01,31,08,24,3.20
2006,01,31,08,25,1.60
2006,01,31,08,26,4.80
2006,01,31,08,27,6.40
2006,01,31,08,28,0.00
2006,01,31,08,29,0.00
2006,01,31,08,30,0.00
2006,01,31,08,31,0.00
2006,01,31,08,32,0.00
2006,01,31,08,33,0.00
2006,01,31,08,34,4.80
2006,01,31,08,35,6.40
2006,01,31,08,36,4.80
2006,01,31,08,37,3.20
2006,01,31,08,38,1.60
2006,01,31,08,39,1.60
2006,01,31,08,40,1.60
2006,01,31,08,41,0.00
2006,01,31,08,42,0.00
2006,01,31,08,43,0.00
2006,01,31,08,44,0.00
2006,01,31,08,45,0.00
2006,01,31,08,46,0.00
2006,01,31,08,47,0.00
2006,01,31,08,48,1.60
2006,01,31,08,49,1.60
2006,01,31,08,50,0.00
2006,01,31,08,51,0.00
2006,01,31,08,52,0.00
2006,01,31,08,53,0.00
2006,01,31,08,54,1.60
2006,01,31,08,55,3.20
2006,01,31,08,56,4.80
2006,01,31,08,57,4.80
2006,01,31,08,58,4.80
2006,01,31,08,59,6.40
2006,01,31,09,00,6.40
2006,01,31,09,01,6.40
2006,01,31,09,02,4.80
2006,01,31,09,03,6.40
2006,01,31,09,04,8.10
2006,01,31,09,05,4.80
2006,01,31,09,06,4.80
2006,01,31,09,07,8.10
2006,01,31,09,08,6.40
2006,01,31,09,09,6.40
2006,01,31,09,10,9.60
2006,01,31,09,11,9.60
2006,01,31,09,12,12.90
2006,01,31,09,13,8.10
2006,01,31,09,14,11.30
2006,01,31,09,15,9.60
2006,01,31,09,16,9.60
2006,01,31,09,17,12.90
2006,01,31,09,18,9.60
2006,01,31,09,19,8.10
2006,01,31,09,20,9.60
2006,01,31,09,21,9.60
2006,01,31,09,22,9.60
2006,01,31,09,23,6.40
2006,01,31,09,24,6.40
2006,01,31,09,25,4.80
2006,01,31,09,26,4.80
2006,01,31,09,27,4.80
2006,01,31,09,28,3.20
2006,01,31,09,29,8.10
2006,01,31,09,30,4.80
2006,01,31,09,31,4.80
2006,01,31,09,32,6.40
2006,01,31,09,33,6.40
2006,01,31,09,34,6.40
2006,01,31,09,35,6.40
2006,01,31,09,36,4.80
2006,01,31,09,37,4.80
2006,01,31,09,38,8.10
2006,01,31,09,39,6.40
2006,01,31,09,40,8.10
2006,01,31,09,41,9.60
2006,01,31,09,42,9.60
2006,01,31,09,43,8.10
2006,01,31,09,44,9.60
2006,01,31,09,45,8.10
2006,01,31,09,46,6.40
2006,01,31,09,47,6.40
2006,01,31,09,48,6.40
2006,01,31,09,49,9.60
2006,01,31,09,50,9.60
2006,01,31,09,51,6.40
2006,01,31,09,52,6.40
2006,01,31,09,53,6.40
2006,01,31,09,54,9.60
2006,01,31,09,55,8.10
2006,01,31,09,56,8.10
2006,01,31,09,57,11.30
2006,01,31,09,58,9.60
2006,01,31,09,59,6.40
2006,01,31,10,00,6.40
2006,01,31,10,01,4.80
2006,01,31,10,02,4.80
2006,01,31,10,03,4.80
2006,01,31,10,04,6.40
2006,01,31,10,05,4.80
2006,01,31,10,06,4.80
2006,01,31,10,07,6.40
2006,01,31,10,08,4.80
2006,01,31,10,09,4.80
2006,01,31,10,10,4.80
2006,01,31,10,11,3.20
2006,01,31,10,12,4.80
2006,01,31,10,13,3.20
2006,01,31,10,14,4.80
2006,01,31,10,15,6.40
2006,01,31,10,16,6.40
2006,01,31,10,17,9.60
2006,01,31,10,18,11.30
2006,01,31,10,19,9.60
2006,01,31,10,20,9.60
2006,01,31,10,21,17.70
2006,01,31,10,22,17.70
2006,01,31,10,23,9.60
2006,01,31,10,24,11.30
2006,01,31,10,25,8.10
2006,01,31,10,26,6.40
2006,01,31,10,27,8.10
2006,01,31,10,28,4.80
2006,01,31,10,29,3.20
2006,01,31,10,30,1.60
2006,01,31,10,31,4.80
2006,01,31,10,32,4.80
2006,01,31,10,33,1.60
2006,01,31,10,34,1.60
2006,01,31,10,35,4.80
2006,01,31,10,36,6.40
2006,01,31,10,37,3.20
2006,01,31,10,38,4.80
2006,01,31,10,39,4.80
2006,01,31,10,40,8.10
2006,01,31,10,41,4.80
2006,01,31,10,42,4.80
2006,01,31,10,43,4.80
2006,01,31,10,44,6.40
2006,01,31,10,45,6.40
2006,01,31,10,46,6.40
2006,01,31,10,47,4.80
2006,01,31,10,48,6.40
2006,01,31,10,49,6.40
2006,01,31,10,50,6.40
2006,01,31,10,51,6.40
2006,01,31,10,52,8.10
2006,01,31,10,53,6.40
2006,01,31,10,54,6.40
2006,01,31,10,55,4.80
2006,01,31,10,56,8.10
2006,01,31,10,57,6.40
2006,01,31,10,58,8.10
2006,01,31,10,59,6.40
2006,01,31,11,00,4.80
2006,01,31,11,01,3.20
2006,01,31,11,02,4.80
2006,01,31,11,03,6.40
2006,01,31,11,04,6.40
2006,01,31,11,05,4.80
2006,01,31,11,06,3.20
2006,01,31,11,07,8.10
2006,01,31,11,08,8.10
2006,01,31,11,09,8.10
2006,01,31,11,10,8.10
2006,01,31,11,11,9.60
2006,01,31,11,12,6.40
2006,01,31,11,13,4.80
2006,01,31,11,14,4.80
2006,01,31,11,15,6.40
2006,01,31,11,16,6.40
2006,01,31,11,17,6.40
2006,01,31,11,18,4.80
2006,01,31,11,19,6.40
2006,01,31,11,20,8.10
2006,01,31,11,21,8.10
2006,01,31,11,22,9.60
2006,01,31,11,23,9.60
2006,01,31,11,24,8.10
2006,01,31,11,25,9.60
2006,01,31,11,26,8.10
2006,01,31,11,27,8.10
2006,01,31,11,28,9.60
2006,01,31,11,29,8.10
2006,01,31,11,30,8.10
2006,01,31,11,31,11.30
2006,01,31,11,32,14.50
2006,01,31,11,33,9.60
2006,01,31,11,34,8.10
2006,01,31,11,35,6.40
2006,01,31,11,36,14.50
2006,01,31,11,37,17.70
2006,01,31,11,38,14.50
2006,01,31,11,39,11.30
2006,01,31,11,40,9.60
2006,01,31,11,41,11.30
2006,01,31,11,42,8.10
2006,01,31,11,43,8.10
2006,01,31,11,44,8.10
2006,01,31,11,45,8.10
2006,01,31,11,46,4.80
2006,01,31,11,47,11.30
2006,01,31,11,48,9.60
2006,01,31,11,49,14.50
2006,01,31,11,50,9.60
2006,01,31,11,51,11.30
2006,01,31,11,52,11.30
2006,01,31,11,53,11.30
2006,01,31,11,54,9.60
2006,01,31,11,55,12.90
2006,01,31,11,56,12.90
2006,01,31,11,57,11.30
2006,01,31,11,58,8.10
2006,01,31,11,59,8.10
2006,01,31,12,00,11.30
2006,01,31,12,01,11.30
2006,01,31,12,02,8.10
2006,01,31,12,03,8.10
2006,01,31,12,04,6.40
2006,01,31,12,05,4.80
2006,01,31,12,06,3.20
2006,01,31,12,07,6.40
2006,01,31,12,08,9.60
2006,01,31,12,09,6.40
2006,01,31,12,10,8.10
2006,01,31,12,11,8.10
2006,01,31,12,12,9.60
2006,01,31,12,13,4.80
2006,01,31,12,14,6.40
2006,01,31,12,15,6.40
2006,01,31,12,16,9.60
2006,01,31,12,17,9.60
2006,01,31,12,18,6.40
2006,01,31,12,19,9.60
2006,01,31,12,20,8.10
2006,01,31,12,21,8.10
2006,01,31,12,22,8.10
2006,01,31,12,23,12.90
2006,01,31,12,24,9.60
2006,01,31,12,25,9.60
2006,01,31,12,26,6.40
2006,01,31,12,27,9.60
2006,01,31,12,28,11.30
2006,01,31,12,29,12.90
2006,01,31,12,30,11.30
2006,01,31,12,31,11.30
2006,01,31,12,32,9.60
2006,01,31,12,33,14.50
2006,01,31,12,34,11.30
2006,01,31,12,35,8.10
2006,01,31,12,36,14.50
2006,01,31,12,37,9.60
2006,01,31,12,38,11.30
2006,01,31,12,39,14.50
2006,01,31,12,40,11.30
2006,01,31,12,41,17.70
2006,01,31,12,42,9.60
2006,01,31,12,43,14.50
2006,01,31,12,44,17.70
2006,01,31,12,45,9.60
2006,01,31,12,46,14.50
2006,01,31,12,47,16.10
2006,01,31,12,48,17.70
2006,01,31,12,49,20.90
2006,01,31,12,50,16.10
2006,01,31,12,51,19.30
2006,01,31,12,52,17.70
2006,01,31,12,53,25.70
2006,01,31,12,54,20.90
2006,01,31,12,55,24.20
2006,01,31,12,56,20.90
2006,01,31,12,57,22.50
2006,01,31,12,58,19.30
2006,01,31,12,59,24.20
2006,01,31,13,00,27.40
2006,01,31,13,01,25.70
2006,01,31,13,02,27.40
2006,01,31,13,03,25.70
2006,01,31,13,04,25.70
2006,01,31,13,05,22.50
2006,01,31,13,06,27.40
2006,01,31,13,07,33.80
2006,01,31,13,08,33.80
2006,01,31,13,09,29.00
2006,01,31,13,10,35.40
2006,01,31,13,11,30.60
2006,01,31,13,12,29.00
2006,01,31,13,13,20.90
2006,01,31,13,14,20.90
2006,01,31,13,15,30.60
2006,01,31,13,16,20.90
2006,01,31,13,17,30.60
2006,01,31,13,18,25.70
2006,01,31,13,19,22.50
2006,01,31,13,20,32.20
2006,01,31,13,21,30.60
2006,01,31,13,22,25.70
2006,01,31,13,23,33.80
2006,01,31,13,24,25.70
2006,01,31,13,25,27.40
2006,01,31,13,26,25.70
2006,01,31,13,27,22.50
2006,01,31,13,28,25.70
2006,01,31,13,29,27.40
2006,01,31,13,30,25.70
2006,01,31,13,31,22.50
2006,01,31,13,32,27.40
2006,01,31,13,33,22.50
2006,01,31,13,34,20.90
2006,01,31,13,35,24.20
2006,01,31,13,36,27.40
2006,01,31,13,37,25.70
2006,01,31,13,38,32.20
2006,01,31,13,39,32.20
2006,01,31,13,40,37.00
2006,01,31,13,41,30.60
2006,01,31,13,42,38.60
2006,01,31,13,43,43.50
2006,01,31,13,44,37.00
2006,01,31,13,45,24.20
2006,01,31,13,46,40.20
2006,01,31,13,47,35.40
2006,01,31,13,48,41.80
2006,01,31,13,49,41.80
2006,01,31,13,50,40.20
2006,01,31,13,51,38.60
2006,01,31,13,52,48.30
2006,01,31,13,53,29.00
2006,01,31,13,54,40.20
2006,01,31,13,55,45.10
2006,01,31,13,56,33.80
2006,01,31,13,57,32.20
2006,01,31,13,58,27.40
2006,01,31,13,59,38.60
2006,01,31,14,00,43.50
2006,01,31,14,01,40.20
2006,01,31,14,02,49.90
2006,01,31,14,03,53.10
2006,01,31,14,04,49.90
2006,01,31,14,05,37.00
2006,01,31,14,06,25.70
2006,01,31,14,07,51.50
2006,01,31,14,08,51.50
2006,01,31,14,09,62.70
2006,01,31,14,10,49.90
2006,01,31,14,11,53.10
2006,01,31,14,12,53.10
2006,01,31,14,13,54.70
2006,01,31,14,14,48.30
2006,01,31,14,15,38.60
2006,01,31,14,16,59.50
2006,01,31,14,17,56.30
2006,01,31,14,18,62.70
2006,01,31,14,19,53.10
2006,01,31,14,20,53.10
2006,01,31,14,21,66.00
2006,01,31,14,22,54.70
2006,01,31,14,23,57.90
2006,01,31,14,24,48.30
2006,01,31,14,25,49.90
2006,01,31,14,26,56.30
2006,01,31,14,27,51.50
2006,01,31,14,28,57.90
2006,01,31,14,29,53.10
2006,01,31,14,30,70.80
2006,01,31,14,31,64.40
2006,01,31,14,32,56.30
2006,01,31,14,33,54.70
2006,01,31,14,34,66.00
2006,01,31,14,35,69.20
2006,01,31,14,36,51.50
2006,01,31,14,37,54.70
2006,01,31,14,38,57.90
2006,01,31,14,39,53.10
2006,01,31,14,40,51.50
2006,01,31,14,41,69.20
2006,01,31,14,42,61.20
2006,01,31,14,43,57.90
2006,01,31,14,44,64.40
2006,01,31,14,45,54.70
2006,01,31,14,46,56.30
2006,01,31,14,47,66.00
2006,01,31,14,48,43.50
2006,01,31,14,49,64.40
2006,01,31,14,50,59.50
2006,01,31,14,51,53.10
2006,01,31,14,52,53.10
2006,01,31,14,53,56.30
2006,01,31,14,54,54.70
2006,01,31,14,55,66.00
2006,01,31,14,56,59.50
2006,01,31,14,57,37.00
2006,01,31,14,58,66.00
2006,01,31,14,59,66.00
2006,01,31,15,00,67.60
2006,01,31,15,01,57.90
2006,01,31,15,02,74.00
2006,01,31,15,03,67.60
2006,01,31,15,04,64.40
2006,01,31,15,05,51.50
2006,01,31,15,06,75.60
2006,01,31,15,07,56.30
2006,01,31,15,08,57.90
2006,01,31,15,09,53.10
2006,01,31,15,10,53.10
2006,01,31,15,11,54.70
2006,01,31,15,12,64.40
2006,01,31,15,13,48.30
2006,01,31,15,14,56.30
2006,01,31,15,15,66.00
2006,01,31,15,16,59.50
2006,01,31,15,17,53.10
2006,01,31,15,18,62.70
2006,01,31,15,19,57.90
2006,01,31,15,20,51.50
2006,01,31,15,21,70.80
2006,01,31,15,22,53.10
2006,01,31,15,23,61.20
2006,01,31,15,24,64.40
2006,01,31,15,25,51.50
2006,01,31,15,26,59.50
2006,01,31,15,27,56.30
2006,01,31,15,28,56.30
2006,01,31,15,29,46.70
2006,01,31,15,30,61.20
2006,01,31,15,31,46.70
2006,01,31,15,32,45.10
2006,01,31,15,33,48.30
2006,01,31,15,34,54.70
2006,01,31,15,35,59.50
2006,01,31,15,36,49.90
2006,01,31,15,37,74.00
2006,01,31,15,38,70.80
2006,01,31,15,39,69.20
2006,01,31,15,40,66.00
2006,01,31,15,41,67.60
2006,01,31,15,42,61.20
2006,01,31,15,43,83.70
2006,01,31,15,44,74.00
2006,01,31,15,45,53.10
2006,01,31,15,46,59.50
2006,01,31,15,47,53.10
2006,01,31,15,48,62.70
2006,01,31,15,49,64.40
2006,01,31,15,50,46.70
2006,01,31,15,51,56.30
2006,01,31,15,52,69.20
2006,01,31,15,53,64.40
2006,01,31,15,54,45.10
2006,01,31,15,55,69.20
2006,01,31,15,56,69.20
2006,01,31,15,57,45.10
2006,01,31,15,58,75.60
2006,01,31,15,59,66.00
2006,01,31,16,00,48.30
2006,01,31,16,01,80.50
2006,01,31,16,02,57.90
2006,01,31,16,03,51.50
2006,01,31,16,04,53.10
2006,01,31,16,05,53.10
2006,01,31,16,06,64.40
2006,01,31,16,07,64.40
2006,01,31,16,08,46.70
2006,01,31,16,09,70.80
2006,01,31,16,10,64.40
2006,01,31,16,11,64.40
2006,01,31,16,12,61.20
2006,01,31,16,13,53.10
2006,01,31,16,14,66.00
2006,01,31,16,15,54.70
2006,01,31,16,16,64.40
2006,01,31,16,17,64.40
2006,01,31,16,18,72.40
2006,01,31,16,19,90.10
2006,01,31,16,20,72.40
2006,01,31,16,21,74.00
2006,01,31,16,22,67.60
2006,01,31,16,23,69.20
2006,01,31,16,24,69.20
2006,01,31,16,25,64.40
2006,01,31,16,26,59.50
2006,01,31,16,27,64.40
2006,01,31,16,28,64.40
2006,01,31,16,29,69.20
2006,01,31,16,30,77.30
2006,01,31,16,31,59.50
2006,01,31,16,32,72.40
2006,01,31,16,33,69.20
2006,01,31,16,34,57.90
2006,01,31,16,35,53.10
2006,01,31,16,36,53.10
2006,01,31,16,37,53.10
2006,01,31,16,38,67.60
2006,01,31,16,39,67.60
2006,01,31,16,40,64.40
2006,01,31,16,41,72.40
2006,01,31,16,42,67.60
2006,01,31,16,43,64.40
2006,01,31,16,44,61.20
2006,01,31,16,45,62.70
2006,01,31,16,46,64.40
2006,01,31,16,47,69.20
2006,01,31,16,48,75.60
2006,01,31,16,49,62.70
2006,01,31,16,50,64.40
2006,01,31,16,51,67.60
2006,01,31,16,52,78.80
2006,01,31,16,53,66.00
2006,01,31,16,54,72.40
2006,01,31,16,55,57.90
2006,01,31,16,56,67.60
2006,01,31,16,57,51.50
2006,01,31,16,58,66.00
2006,01,31,16,59,64.40
2006,01,31,17,00,53.10
2006,01,31,17,01,54.70
2006,01,31,17,02,66.00
2006,01,31,17,03,69.20
2006,01,31,17,04,69.20
2006,01,31,17,05,57.90
2006,01,31,17,06,74.00
2006,01,31,17,07,75.60
2006,01,31,17,08,61.20
2006,01,31,17,09,62.70
2006,01,31,17,10,69.20
2006,01,31,17,11,64.40
2006,01,31,17,12,51.50
2006,01,31,17,13,64.40
2006,01,31,17,14,64.40
2006,01,31,17,15,66.00
2006,01,31,17,16,57.90
2006,01,31,17,17,59.50
2006,01,31,17,18,57.90
2006,01,31,17,19,53.10
2006,01,31,17,20,64.40
2006,01,31,17,21,59.50
2006,01,31,17,22,56.30
2006,01,31,17,23,70.80
2006,01,31,17,24,62.70
2006,01,31,17,25,69.20
2006,01,31,17,26,61.20
2006,01,31,17,27,67.60
2006,01,31,17,28,57.90
2006,01,31,17,29,57.90
2006,01,31,17,30,56.30
2006,01,31,17,31,53.10
2006,01,31,17,32,70.80
2006,01,31,17,33,59.50
2006,01,31,17,34,53.10
2006,01,31,17,35,62.70
2006,01,31,17,36,61.20
2006,01,31,17,37,54.70
2006,01,31,17,38,64.40
2006,01,31,17,39,66.00
2006,01,31,17,40,48.30
2006,01,31,17,41,56.30
2006,01,31,17,42,61.20
2006,01,31,17,43,57.90
2006,01,31,17,44,67.60
2006,01,31,17,45,62.70
2006,01,31,17,46,57.90
2006,01,31,17,47,64.40
2006,01,31,17,48,54.70